Time,TemperatureF,DewpointF,PressureIn,WindDirection,WindDirectionDegrees,WindSpeedMPH,WindSpeedGustMPH,Humidity,HourlyPrecipIn,Conditions,Clouds,dailyrainin,SoftwareType,DateUTC
2013-07-29 00:02:00,56.0,53.0,30.07,NNW,344,0.0,0.0,89,0.00,,,0.00,,2013-07-29 05:02:00,
2013-07-29 00:12:00,56.0,53.0,30.08,NNW,344,0.0,0.0,90,0.00,,,0.00,,2013-07-29 05:12:00,
2013-07-29 00:22:00,56.0,53.0,30.08,NNW,344,0.0,0.0,90,0.00,,,0.00,,2013-07-29 05:22:00,
2013-07-29 00:32:00,56.0,53.0,30.08,NNW,344,0.0,0.0,90,0.00,,,0.00,,2013-07-29 05:32:00,
2013-07-29 00:42:00,55.0,52.0,30.08,NNW,344,0.0,0.0,90,0.00,,,0.00,,2013-07-29 05:42:00,
2013-07-29 00:53:00,55.0,52.0,30.08,NNW,344,0.0,0.0,90,0.00,,,0.00,,2013-07-29 05:53:00,
2013-07-29 01:02:00,54.0,51.0,30.08,NNW,344,0.0,0.0,90,0.00,,,0.00,,2013-07-29 06:02:00,
2013-07-29 01:12:00,54.0,51.0,30.09,NNW,344,0.0,0.0,90,0.00,,,0.00,,2013-07-29 06:12:00,
2013-07-29 01:22:00,54.0,51.0,30.09,NNW,344,0.0,0.0,90,0.00,,,0.00,,2013-07-29 06:22:00,
2013-07-29 01:32:00,54.0,51.0,30.09,NNW,344,0.0,0.0,91,0.00,,,0.00,,2013-07-29 06:32:00,
2013-07-29 01:43:00,54.0,51.0,30.08,NNW,344,0.0,0.0,91,0.00,,,0.00,,2013-07-29 06:43:00,
2013-07-29 01:52:00,54.0,51.0,30.09,NNW,344,0.0,0.0,91,0.00,,,0.00,,2013-07-29 06:52:00,
2013-07-29 02:02:00,54.0,51.0,30.09,NNW,344,0.0,0.0,91,0.00,,,0.00,,2013-07-29 07:02:00,
2013-07-29 02:12:00,54.0,51.0,30.09,NNW,344,0.0,0.0,91,0.00,,,0.00,,2013-07-29 07:12:00,
2013-07-29 02:22:00,53.0,50.0,30.09,NNW,344,0.0,9.0,91,0.00,,,0.00,,2013-07-29 07:22:00,
2013-07-29 02:33:00,54.0,51.0,30.09,NNW,344,0.0,0.0,91,0.00,,,0.00,,2013-07-29 07:33:00,
2013-07-29 02:43:00,54.0,51.0,30.09,NNW,344,0.0,0.0,91,0.00,,,0.00,,2013-07-29 07:43:00,
2013-07-29 02:53:00,54.0,51.0,30.09,NNW,344,0.0,0.0,91,0.00,,,0.00,,2013-07-29 07:53:00,
2013-07-29 03:02:00,53.0,50.0,30.09,NNW,344,0.0,0.0,91,0.00,,,0.00,,2013-07-29 08:02:00,
2013-07-29 03:12:00,53.0,50.0,30.09,NNW,344,0.0,0.0,91,0.00,,,0.00,,2013-07-29 08:12:00,
2013-07-29 03:22:00,53.0,50.0,30.10,NNW,344,0.0,0.0,91,0.00,,,0.00,,2013-07-29 08:22:00,
2013-07-29 03:33:00,52.0,49.0,30.10,NNW,344,0.0,0.0,91,0.00,,,0.00,,2013-07-29 08:33:00,
2013-07-29 03:42:00,52.0,49.0,30.10,NNW,344,0.0,0.0,91,0.00,,,0.00,,2013-07-29 08:42:00,
2013-07-29 03:52:00,52.0,49.0,30.10,NNW,344,0.0,0.0,91,0.00,,,0.00,,2013-07-29 08:52:00,
2013-07-29 04:02:00,52.0,49.0,30.10,NNW,344,0.0,0.0,91,0.00,,,0.00,,2013-07-29 09:02:00,
2013-07-29 04:12:00,52.0,49.0,30.11,NNW,344,0.0,0.0,91,0.00,,,0.00,,2013-07-29 09:12:00,
2013-07-29 04:22:00,52.0,49.0,30.11,NNW,344,0.0,0.0,91,0.00,,,0.00,,2013-07-29 09:22:00,
2013-07-29 04:33:00,53.0,50.0,30.11,NNW,344,0.0,0.0,91,0.00,,,0.00,,2013-07-29 09:33:00,
2013-07-29 04:43:00,53.0,50.0,30.11,NNW,344,0.0,0.0,91,0.00,,,0.00,,2013-07-29 09:43:00,
2013-07-29 04:53:00,53.0,50.0,30.12,NNW,344,0.0,0.0,91,0.00,,,0.00,,2013-07-29 09:53:00,
2013-07-29 05:04:00,54.0,51.0,30.12,NNW,344,0.0,0.0,91,0.00,,,0.00,,2013-07-29 10:04:00,
2013-07-29 05:14:00,54.0,51.0,30.13,NNW,344,0.0,0.0,91,0.00,,,0.00,,2013-07-29 10:14:00,
2013-07-29 05:37:00,54.0,51.0,30.13,NNW,344,0.0,0.0,91,0.00,,,0.00,,2013-07-29 10:37:00,
2013-07-29 05:48:00,54.0,51.0,30.13,NNW,344,0.0,0.0,91,0.00,,,0.00,,2013-07-29 10:48:00,
2013-07-29 05:53:00,53.0,50.0,30.14,NNW,344,0.0,0.0,91,0.00,,,0.00,,2013-07-29 10:53:00,
2013-07-29 06:05:00,53.0,50.0,30.14,WNW,301,0.0,0.0,91,0.00,,,0.00,,2013-07-29 11:05:00,
2013-07-29 06:15:00,53.0,50.0,30.14,WNW,301,0.0,0.0,91,0.00,,,0.00,,2013-07-29 11:15:00,
2013-07-29 06:24:00,53.0,50.0,30.14,WNW,301,0.0,0.0,91,0.00,,,0.00,,2013-07-29 11:24:00,
2013-07-29 06:36:00,52.0,49.0,30.14,WNW,301,0.0,0.0,91,0.00,,,0.00,,2013-07-29 11:36:00,
2013-07-29 06:44:00,52.0,49.0,30.15,WNW,301,0.0,0.0,91,0.00,,,0.00,,2013-07-29 11:44:00,
2013-07-29 06:55:00,53.0,50.0,30.15,WNW,301,0.0,0.0,91,0.00,,,0.00,,2013-07-29 11:55:00,
2013-07-29 07:09:00,53.0,50.0,30.15,WNW,301,0.0,0.0,91,0.00,,,0.00,,2013-07-29 12:09:00,
2013-07-29 07:25:00,55.0,52.0,30.16,WNW,301,0.0,0.0,91,0.00,,,0.00,,2013-07-29 12:25:00,
2013-07-29 07:35:00,55.0,52.0,30.16,WNW,301,0.0,0.0,91,0.00,,,0.00,,2013-07-29 12:35:00,
2013-07-29 07:45:00,55.0,52.0,30.16,WNW,301,0.0,0.0,91,0.00,,,0.00,,2013-07-29 12:45:00,
2013-07-29 07:55:00,56.0,53.0,30.16,WNW,301,0.0,0.0,91,0.00,,,0.00,,2013-07-29 12:55:00,
2013-07-29 08:17:00,58.0,55.0,30.16,WNW,301,0.0,0.0,91,0.00,,,0.00,,2013-07-29 13:17:00,
2013-07-29 08:27:00,59.0,56.0,30.16,WNW,301,0.0,0.0,91,0.00,,,0.00,,2013-07-29 13:27:00,
2013-07-29 08:36:00,60.0,57.0,30.17,WNW,301,0.0,0.0,91,0.00,,,0.00,,2013-07-29 13:36:00,
2013-07-29 08:44:00,60.0,57.0,30.16,WNW,301,0.0,0.0,91,0.00,,,0.00,,2013-07-29 13:44:00,
2013-07-29 08:54:00,61.0,58.0,30.17,North,10,0.0,4.0,91,0.00,,,0.00,,2013-07-29 13:54:00,
2013-07-29 09:05:00,62.0,59.0,30.17,North,10,0.0,0.0,91,0.00,,,0.00,,2013-07-29 14:05:00,
2013-07-29 09:12:00,63.0,60.0,30.17,North,10,0.0,0.0,91,0.00,,,0.00,,2013-07-29 14:12:00,
2013-07-29 09:27:00,64.0,61.0,30.17,ESE,109,0.0,0.0,91,0.00,,,0.00,,2013-07-29 14:27:00,
2013-07-29 09:35:00,65.0,61.0,30.17,ESE,109,0.0,1.0,88,0.00,,,0.00,,2013-07-29 14:35:00,
2013-07-29 09:45:00,65.0,60.0,30.18,ESE,109,0.0,1.0,83,0.00,,,0.00,,2013-07-29 14:45:00,
2013-07-29 09:55:00,66.0,57.0,30.18,North,360,0.0,3.0,73,0.00,,,0.00,,2013-07-29 14:55:00,
2013-07-29 10:07:00,67.0,55.0,30.17,North,360,0.0,0.0,66,0.00,,,0.00,,2013-07-29 15:07:00,
2013-07-29 10:24:00,69.0,52.0,30.18,South,173,0.0,2.0,54,0.00,,,0.00,,2013-07-29 15:24:00,
2013-07-29 10:37:00,71.0,54.0,30.18,South,173,0.0,3.0,55,0.00,,,0.00,,2013-07-29 15:37:00,
2013-07-29 10:45:00,73.0,55.0,30.18,SSE,163,0.0,3.0,53,0.00,,,0.00,,2013-07-29 15:45:00,
2013-07-29 10:54:00,73.0,55.0,30.18,South,177,0.0,2.0,53,0.00,,,0.00,,2013-07-29 15:54:00,
2013-07-29 11:13:00,75.0,55.0,30.18,NNE,17,0.0,0.0,49,0.00,,,0.00,,2013-07-29 16:13:00,
2013-07-29 11:24:00,75.0,52.0,30.17,NE,50,0.0,4.0,45,0.00,,,0.00,,2013-07-29 16:24:00,
2013-07-29 11:45:00,77.0,54.0,30.17,NE,34,0.0,1.0,45,0.00,,,0.00,,2013-07-29 16:45:00,
2013-07-29 11:55:00,77.0,54.0,30.18,NE,34,0.0,1.0,45,0.00,,,0.00,,2013-07-29 16:55:00,
2013-07-29 12:07:00,77.0,55.0,30.18,East,86,0.0,3.0,47,0.00,,,0.00,,2013-07-29 17:07:00,
2013-07-29 12:13:00,77.0,54.0,30.17,NE,35,0.0,4.0,45,0.00,,,0.00,,2013-07-29 17:13:00,
2013-07-29 12:24:00,77.0,56.0,30.17,NNE,15,0.0,3.0,49,0.00,,,0.00,,2013-07-29 17:24:00,
2013-07-29 12:40:00,78.0,57.0,30.17,North,5,0.0,3.0,48,0.00,,,0.00,,2013-07-29 17:40:00,
2013-07-29 12:56:00,79.0,55.0,30.17,SSE,152,0.0,5.0,43,0.00,,,0.00,,2013-07-29 17:56:00,
2013-07-29 13:06:00,79.0,55.0,30.16,ENE,57,0.0,2.0,44,0.00,,,0.00,,2013-07-29 18:06:00,
2013-07-29 13:14:00,79.0,56.0,30.17,SSE,148,3.0,4.0,45,0.00,,,0.00,,2013-07-29 18:14:00,
2013-07-29 13:27:00,79.0,54.0,30.16,North,5,2.0,5.0,42,0.00,,,0.00,,2013-07-29 18:27:00,
2013-07-29 13:35:00,79.0,55.0,30.16,SE,126,0.0,2.0,43,0.00,,,0.00,,2013-07-29 18:35:00,
2013-07-29 13:55:00,77.0,55.0,30.16,East,86,0.0,2.0,46,0.00,,,0.00,,2013-07-29 18:55:00,
2013-07-29 14:03:00,77.0,56.0,30.16,SSE,147,0.0,4.0,49,0.00,,,0.00,,2013-07-29 19:03:00,
2013-07-29 14:15:00,78.0,57.0,30.16,SSE,167,0.0,0.0,48,0.00,,,0.00,,2013-07-29 19:15:00,
2013-07-29 14:25:00,78.0,58.0,30.16,SSE,155,0.0,3.0,50,0.00,,,0.00,,2013-07-29 19:25:00,
2013-07-29 14:36:00,78.0,58.0,30.16,SSE,155,0.0,2.0,51,0.00,,,0.00,,2013-07-29 19:36:00,
2013-07-29 14:45:00,79.0,59.0,30.17,SE,127,0.0,3.0,51,0.00,,,0.00,,2013-07-29 19:45:00,
2013-07-29 14:53:00,81.0,58.0,30.16,SE,128,0.0,4.0,45,0.00,,,0.00,,2013-07-29 19:53:00,
2013-07-29 15:07:00,80.0,56.0,30.17,SSE,158,0.0,5.0,44,0.00,,,0.00,,2013-07-29 20:07:00,
2013-07-29 15:15:00,80.0,55.0,30.17,SSE,159,0.0,3.0,43,0.00,,,0.00,,2013-07-29 20:15:00,
2013-07-29 15:24:00,80.0,53.0,30.16,SSE,155,0.0,5.0,39,0.00,,,0.00,,2013-07-29 20:24:00,
2013-07-29 15:35:00,79.0,56.0,30.15,SSE,162,0.0,2.0,46,0.00,,,0.00,,2013-07-29 20:35:00,
2013-07-29 15:47:00,79.0,58.0,30.16,SSE,162,0.0,2.0,49,0.00,,,0.00,,2013-07-29 20:47:00,
2013-07-29 15:56:00,79.0,59.0,30.16,SSE,166,0.0,1.0,50,0.00,,,0.00,,2013-07-29 20:56:00,
2013-07-29 16:24:00,79.0,57.0,30.17,ESE,114,0.0,3.0,47,0.00,,,0.00,,2013-07-29 21:24:00,
2013-07-29 16:47:00,79.0,58.0,30.16,SE,125,0.0,0.0,48,0.00,,,0.00,,2013-07-29 21:47:00,
2013-07-29 16:56:00,79.0,58.0,30.17,SE,125,0.0,0.0,49,0.00,,,0.00,,2013-07-29 21:56:00,
2013-07-29 17:04:00,78.0,57.0,30.16,SE,125,0.0,0.0,48,0.00,,,0.00,,2013-07-29 22:04:00,
2013-07-29 17:25:00,78.0,57.0,30.15,SE,139,1.0,3.0,49,0.00,,,0.00,,2013-07-29 22:25:00,
2013-07-29 17:37:00,79.0,58.0,30.15,SE,139,0.0,2.0,48,0.00,,,0.00,,2013-07-29 22:37:00,
2013-07-29 17:44:00,79.0,58.0,30.16,SE,139,0.0,0.0,49,0.00,,,0.00,,2013-07-29 22:44:00,
2013-07-29 17:55:00,79.0,56.0,30.16,SE,139,0.0,0.0,45,0.00,,,0.00,,2013-07-29 22:55:00,
2013-07-29 18:05:00,79.0,58.0,30.15,SE,139,0.0,0.0,48,0.00,,,0.00,,2013-07-29 23:05:00,
2013-07-29 18:14:00,78.0,60.0,30.15,SE,139,0.0,0.0,54,0.00,,,0.00,,2013-07-29 23:14:00,
2013-07-29 18:26:00,77.0,60.0,30.15,SE,139,0.0,0.0,55,0.00,,,0.00,,2013-07-29 23:26:00,
2013-07-29 18:35:00,77.0,61.0,30.15,SE,139,0.0,0.0,58,0.00,,,0.00,,2013-07-29 23:35:00,
2013-07-29 18:44:00,76.0,63.0,30.14,SE,139,0.0,0.0,64,0.00,,,0.00,,2013-07-29 23:44:00,
2013-07-29 18:54:00,76.0,62.0,30.15,SE,139,0.0,0.0,61,0.00,,,0.00,,2013-07-29 23:54:00,
2013-07-29 19:07:00,76.0,63.0,30.14,SE,139,0.0,0.0,65,0.00,,,0.00,,2013-07-30 00:07:00,
2013-07-29 19:34:00,75.0,63.0,30.14,SE,139,0.0,0.0,67,0.00,,,0.00,,2013-07-30 00:34:00,
2013-07-29 19:47:00,75.0,63.0,30.15,SE,139,0.0,0.0,67,0.00,,,0.00,,2013-07-30 00:47:00,
2013-07-29 19:54:00,74.0,63.0,30.15,SE,139,0.0,0.0,69,0.00,,,0.00,,2013-07-30 00:54:00,
2013-07-29 20:05:00,73.0,63.0,30.14,SE,145,0.0,0.0,71,0.00,,,0.00,,2013-07-30 01:05:00,
2013-07-29 20:16:00,72.0,63.0,30.14,NW,319,0.0,0.0,74,0.00,,,0.00,,2013-07-30 01:16:00,
2013-07-29 20:23:00,72.0,64.0,30.14,NW,319,0.0,0.0,77,0.00,,,0.00,,2013-07-30 01:23:00,
2013-07-29 20:36:00,70.0,63.0,30.14,NNW,333,0.0,0.0,78,0.00,,,0.00,,2013-07-30 01:36:00,
2013-07-29 20:44:00,69.0,62.0,30.14,NNW,333,0.0,1.0,79,0.00,,,0.00,,2013-07-30 01:44:00,
2013-07-29 20:55:00,68.0,62.0,30.14,NNW,333,0.0,0.0,81,0.00,,,0.00,,2013-07-30 01:55:00,
2013-07-29 21:05:00,67.0,61.0,30.15,NNW,333,0.0,0.0,82,0.00,,,0.00,,2013-07-30 02:05:00,
2013-07-29 21:13:00,66.0,61.0,30.15,NNW,333,0.0,0.0,83,0.00,,,0.00,,2013-07-30 02:13:00,
2013-07-29 21:24:00,66.0,61.0,30.15,NNW,333,0.0,0.0,84,0.00,,,0.00,,2013-07-30 02:24:00,
2013-07-29 21:45:00,65.0,60.0,30.16,NNW,333,0.0,1.0,83,0.00,,,0.00,,2013-07-30 02:45:00,
2013-07-29 21:54:00,65.0,60.0,30.16,NNW,333,0.0,2.0,84,0.00,,,0.00,,2013-07-30 02:54:00,
2013-07-29 22:08:00,65.0,61.0,30.16,NNW,333,0.0,0.0,86,0.00,,,0.00,,2013-07-30 03:08:00,
2013-07-29 22:18:00,65.0,61.0,30.16,NNW,333,0.0,0.0,86,0.00,,,0.00,,2013-07-30 03:18:00,
2013-07-29 22:25:00,65.0,61.0,30.16,NNW,333,0.0,0.0,86,0.00,,,0.00,,2013-07-30 03:25:00,
2013-07-29 22:34:00,65.0,60.0,30.17,NNW,333,0.0,0.0,85,0.00,,,0.00,,2013-07-30 03:34:00,
2013-07-29 22:44:00,65.0,60.0,30.16,NNW,333,0.0,0.0,84,0.00,,,0.00,,2013-07-30 03:44:00,
2013-07-29 22:53:00,65.0,60.0,30.16,NNW,333,0.0,0.0,83,0.00,,,0.00,,2013-07-30 03:53:00,
2013-07-29 23:03:00,65.0,60.0,30.16,NNW,333,0.0,0.0,83,0.00,,,0.00,,2013-07-30 04:03:00,
2013-07-29 23:12:00,66.0,61.0,30.16,NNW,333,0.0,0.0,83,0.00,,,0.00,,2013-07-30 04:12:00,
2013-07-29 23:23:00,66.0,60.0,30.16,NNW,333,0.0,0.0,82,0.00,,,0.00,,2013-07-30 04:23:00,
2013-07-29 23:33:00,66.0,60.0,30.16,NNW,333,0.0,0.0,81,0.00,,,0.00,,2013-07-30 04:33:00,
2013-07-29 23:43:00,66.0,60.0,30.16,NNW,333,0.0,0.0,81,0.00,,,0.00,,2013-07-30 04:43:00,
2013-07-29 23:53:00,66.0,60.0,30.17,NNW,333,0.0,0.0,82,0.00,,,0.00,,2013-07-30 04:53:00,